Flag for U.S.A. Weather past 2 weeks in Jackson, Mississippi, U.S.A.

Now
46 °F

Clear.


Feels Like: 44 °F
Forecast: 46 / 75 °F
Wind: 5 mph from Northwest

Location: Hawkins Field

Current Time: Oct 24, 2014 at 6:27:57 AM

Latest Report: Oct 24, 2014 at 5:53 AM


Visibility: 10 mi

Pressure: 30.11 "Hg

Humidity: 93%

Dew point: 44 °F

Location of JacksonLocation

Historic Weather in Jackson — Graph

°F

Jackson temperature yesterday

Maximum temperature yesterday: 67 °F (at 12:53 PM)
Minimum temperature yesterday: 44 °F (at 6:53 AM)
Average temperature yesterday: 56 °F

Past Weeks' High & Low Weather Summary

 TemperatureHumidityPressure
High89 °F (Oct 10, 1:53 PM)94% (Oct 13, 3:56 PM)30.17 "Hg (Oct 13, 3:56 PM)
Low44 °F (Oct 23, 6:53 AM)26% (Oct 16, 3:53 PM)29.69 "Hg (Oct 13, 1:53 PM)
Average67 °F69%29.99 "Hg
* Reported Oct 9 4:53 AM — Oct 24 4:53 AM, Jackson, Weather by CustomWeather, © 2014

Note: Actual official high and low records may vary slightly from our data, if they occured in-between our weather recording intervals... More about our weather records

Advertising

Jackson weather history for previous 24 hours

 ConditionsComfort  
Time TempWeatherWind HumidityBarometerVisibility
4:53 AM
Oct 24
47 °FClear.3 mph93%30.10 "Hg9 mi
3:53 AM48 °FClear.5 mph89%30.09 "Hg10 mi
2:53 AM48 °FClear.No wind89%30.09 "Hg10 mi
1:53 AM50 °FClear.No wind89%30.10 "Hg10 mi
12:53 AM50 °FClear.No wind89%30.09 "Hg10 mi
11:53 PM
Oct 23
52 °FClear.No wind86%30.10 "Hg10 mi
10:53 PM52 °FClear.No wind89%30.10 "Hg10 mi
9:53 PM54 °FClear.No wind83%30.11 "Hg10 mi
8:53 PM55 °FClear.3 mph80%30.11 "Hg10 mi
7:53 PM58 °FClear.No wind72%30.09 "Hg10 mi
6:53 PM61 °FSunny.6 mph62%30.10 "Hg10 mi
5:53 PM63 °FSunny.5 mph60%30.08 "Hg10 mi
4:53 PM65 °FSunny.No wind54%30.07 "Hg10 mi
3:53 PM66 °FSunny.No wind47%30.08 "Hg10 mi
2:53 PM66 °FSunny.3 mph43%30.08 "Hg10 mi
1:53 PM67 °FSunny.3 mph39%30.10 "Hg10 mi
12:53 PM67 °FSunny.No wind44%30.12 "Hg10 mi
11:53 AM65 °FSunny.6 mph45%30.14 "Hg10 mi
10:53 AM63 °FSunny.7 mph52%30.15 "Hg10 mi
9:53 AM59 °FSunny.7 mph60%30.16 "Hg10 mi
8:53 AM55 °FSunny.6 mph72%30.16 "Hg10 mi
7:53 AM48 °FClear.No wind86%30.14 "Hg10 mi
6:53 AM44 °FClear.No wind93%30.12 "Hg10 mi
Weather by CustomWeather, © 2014

See weather overviewHow to use our weather pages